• In Belarus
  • List of Countries
  • For 7 days
  • Water Temperature
  • Weather Map
  • Weather Widgets
  • user-avatar
    Login

    Hourly Weather Algabas

    Today, 22 September, Sunday

    Time Temperature Precipitation Wind Pressure Humidity
    00:00 +23°C° 0 mm 2 mps 695 mmHg 31%
    01:00 +21°C° 0 mm 2 mps 695 mmHg 31%
    02:00 +21°C° 0 mm 2 mps 695 mmHg 31%
    03:00 +21°C° 0 mm 2 mps 695 mmHg 33%
    04:00 +21°C° 0 mm 2 mps 695 mmHg 34%
    05:00 +21°C° 0 mm 2 mps 694 mmHg 35%
    06:00 +23°C° 0 mm 2 mps 695 mmHg 33%
    07:00 +25°C° 0 mm 1 mps 695 mmHg 31%
    08:00 +27°C° 0 mm 1 mps 696 mmHg 30%
    09:00 +28°C° 0 mm 1 mps 696 mmHg 26%
    10:00 +30°C° 0 mm 2 mps 696 mmHg 22%
    11:00 +32°C° 0 mm 2 mps 696 mmHg 19%
    12:00 +32°C° 0 mm 2 mps 695 mmHg 18%
    13:00 +34°C° 0 mm 2 mps 695 mmHg 17%
    14:00 +35°C° 0 mm 3 mps 695 mmHg 16%
    15:00 +34°C° 0 mm 2 mps 695 mmHg 19%
    16:00 +32°C° 0 mm 2 mps 695 mmHg 22%
    17:00 +31°C° 0 mm 2 mps 695 mmHg 24%
    18:00 +29°C° 0 mm 2 mps 695 mmHg 24%
    19:00 +27°C° 0 mm 2 mps 694 mmHg 23%
    20:00 +26°C° 0 mm 3 mps 694 mmHg 22%
    21:00 +25°C° 0 mm 3 mps 695 mmHg 22%
    22:00 +25°C° 0 mm 3 mps 695 mmHg 22%
    23:00 +25°C° 0 mm 3 mps 695 mmHg 22%

    Tomorrow, 23 September, Monday

    Time Temperature Precipitation Wind Pressure Humidity
    00:00 +25°C° 0 mm 3 mps 695 mmHg 23%
    01:00 +25°C° 0 mm 3 mps 695 mmHg 24%
    02:00 +25°C° 0 mm 3 mps 695 mmHg 24%
    03:00 +25°C° 0 mm 3 mps 696 mmHg 25%
    04:00 +24°C° 0 mm 2 mps 697 mmHg 26%
    05:00 +24°C° 0 mm 2 mps 698 mmHg 27%
    06:00 +24°C° 0 mm 3 mps 698 mmHg 34%
    07:00 +22°C° 0 mm 3 mps 699 mmHg 42%
    08:00 +21°C° 0 mm 3 mps 700 mmHg 50%
    09:00 +22°C° 0 mm 3 mps 700 mmHg 48%
    10:00 +24°C° 0 mm 2 mps 701 mmHg 47%
    11:00 +25°C° 0 mm 2 mps 701 mmHg 46%
    12:00 +25°C° 0 mm 2 mps 700 mmHg 45%
    13:00 +26°C° 0 mm 3 mps 700 mmHg 45%
    14:00 +26°C° 0 mm 3 mps 700 mmHg 45%
    15:00 +25°C° 0.1 mm 3 mps 700 mmHg 46%
    16:00 +25°C° 0.1 mm 3 mps 700 mmHg 48%
    17:00 +24°C° 0.1 mm 3 mps 699 mmHg 49%
    18:00 +22°C° 0.1 mm 3 mps 699 mmHg 51%
    19:00 +20°C° 0.1 mm 2 mps 699 mmHg 52%
    20:00 +19°C° 0.1 mm 2 mps 699 mmHg 54%
    21:00 +19°C° 0.1 mm 2 mps 699 mmHg 54%
    22:00 +19°C° 0.1 mm 1 mps 698 mmHg 54%
    23:00 +19°C° 0.1 mm 1 mps 698 mmHg 55%

    Day after tomorrow, 24 September, Tuesday

    Time Temperature Precipitation Wind Pressure Humidity
    00:00 +19°C° 0 mm 1 mps 698 mmHg 54%
    01:00 +18°C° 0 mm 1 mps 698 mmHg 54%
    02:00 +18°C° 0 mm 1 mps 697 mmHg 53%
    03:00 +18°C° 0 mm 1 mps 697 mmHg 53%
    04:00 +18°C° 0 mm 1 mps 698 mmHg 53%
    05:00 +16°C° 0 mm 1 mps 698 mmHg 53%
    06:00 +19°C° 0 mm 1 mps 698 mmHg 50%
    07:00 +20°C° 0 mm 1 mps 698 mmHg 46%
    08:00 +21°C° 0 mm 2 mps 698 mmHg 43%
    09:00 +23°C° 0 mm 2 mps 698 mmHg 41%
    10:00 +24°C° 0 mm 2 mps 698 mmHg 38%
    11:00 +26°C° 0 mm 2 mps 698 mmHg 36%
    12:00 +26°C° 0 mm 2 mps 697 mmHg 35%
    13:00 +27°C° 0 mm 2 mps 697 mmHg 34%
    14:00 +27°C° 0 mm 2 mps 697 mmHg 33%
    15:00 +27°C° 0 mm 2 mps 697 mmHg 36%
    16:00 +26°C° 0 mm 1 mps 697 mmHg 39%
    17:00 +25°C° 0 mm 1 mps 697 mmHg 42%
    18:00 +24°C° 0 mm 1 mps 697 mmHg 43%
    19:00 +23°C° 0 mm 1 mps 698 mmHg 45%
    20:00 +21°C° 0 mm 1 mps 698 mmHg 46%
    21:00 +21°C° 0 mm 1 mps 697 mmHg 45%
    22:00 +20°C° 0 mm 1 mps 697 mmHg 43%
    23:00 +20°C° 0 mm 1 mps 697 mmHg 42%

    25 September, Wednesday

    Time Temperature Precipitation Wind Pressure Humidity
    00:00 +19°C° 0 mm 1 mps 697 mmHg 41%
    01:00 +19°C° 0 mm 1 mps 697 mmHg 41%
    02:00 +19°C° 0 mm 1 mps 697 mmHg 41%
    03:00 +19°C° 0 mm 1 mps 697 mmHg 41%
    04:00 +17°C° 0 mm 2 mps 697 mmHg 41%
    05:00 +17°C° 0 mm 2 mps 697 mmHg 41%
    06:00 +19°C° 0 mm 1 mps 698 mmHg 39%
    07:00 +21°C° 0 mm 1 mps 698 mmHg 36%
    08:00 +22°C° 0 mm 1 mps 698 mmHg 33%
    09:00 +23°C° 0 mm 1 mps 698 mmHg 31%
    10:00 +25°C° 0 mm 1 mps 698 mmHg 30%
    11:00 +26°C° 0 mm 1 mps 698 mmHg 28%
    12:00 +27°C° 0 mm 1 mps 698 mmHg 28%
    13:00 +27°C° 0 mm 1 mps 698 mmHg 28%
    14:00 +28°C° 0 mm 2 mps 698 mmHg 28%
    15:00 +27°C° 0 mm 1 mps 698 mmHg 31%
    16:00 +26°C° 0 mm 1 mps 698 mmHg 33%
    17:00 +26°C° 0 mm 1 mps 699 mmHg 35%
    18:00 +24°C° 0 mm 1 mps 699 mmHg 37%
    19:00 +23°C° 0 mm 1 mps 699 mmHg 39%
    20:00 +21°C° 0 mm 1 mps 699 mmHg 40%
    21:00 +21°C° 0 mm 1 mps 698 mmHg 41%
    22:00 +20°C° 0 mm 1 mps 698 mmHg 41%
    23:00 +20°C° 0 mm 1 mps 697 mmHg 42%

    26 September, Thursday

    Time Temperature Precipitation Wind Pressure Humidity
    00:00 +19°C° 0 mm 1 mps 697 mmHg 41%
    01:00 +19°C° 0 mm 1 mps 697 mmHg 41%
    02:00 +19°C° 0 mm 1 mps 697 mmHg 40%
    03:00 +17°C° 0 mm 2 mps 697 mmHg 41%
    04:00 +17°C° 0 mm 2 mps 697 mmHg 42%
    05:00 +16°C° 0 mm 2 mps 698 mmHg 43%
    06:00 +18°C° 0 mm 2 mps 698 mmHg 41%
    07:00 +19°C° 0 mm 2 mps 698 mmHg 38%
    08:00 +20°C° 0 mm 2 mps 699 mmHg 36%
    09:00 +21°C° 0 mm 2 mps 699 mmHg 33%
    10:00 +23°C° 0 mm 2 mps 699 mmHg 31%
    11:00 +25°C° 0 mm 2 mps 699 mmHg 29%
    12:00 +25°C° 0 mm 2 mps 699 mmHg 29%
    13:00 +26°C° 0 mm 2 mps 699 mmHg 28%
    14:00 +26°C° 0 mm 2 mps 698 mmHg 28%
    15:00 +25°C° 0 mm 2 mps 698 mmHg 31%
    16:00 +25°C° 0 mm 1 mps 698 mmHg 33%
    17:00 +24°C° 0 mm 1 mps 698 mmHg 36%
    18:00 +23°C° 0 mm 1 mps 698 mmHg 38%
    19:00 +21°C° 0 mm 1 mps 698 mmHg 40%
    20:00 +20°C° 0 mm 1 mps 698 mmHg 42%
    21:00 +19°C° 0 mm 1 mps 698 mmHg 42%
    22:00 +19°C° 0 mm 1 mps 697 mmHg 42%
    23:00 +17°C° 0 mm 0 mps 697 mmHg 43%

    27 September, Friday

    Time Temperature Precipitation Wind Pressure Humidity
    00:00 +17°C° 0 mm 0 mps 697 mmHg 43%
    01:00 +16°C° 0 mm 0 mps 697 mmHg 44%
    02:00 +16°C° 0 mm 0 mps 697 mmHg 45%
    03:00 +16°C° 0 mm 0 mps 697 mmHg 45%
    04:00 +16°C° 0 mm 0 mps 697 mmHg 45%
    05:00 +15°C° 0 mm 0 mps 697 mmHg 46%
    06:00 +17°C° 0 mm 0 mps 697 mmHg 43%
    07:00 +20°C° 0 mm 1 mps 697 mmHg 40%
    08:00 +22°C° 0 mm 1 mps 698 mmHg 36%
    09:00 +23°C° 0 mm 1 mps 698 mmHg 34%
    10:00 +24°C° 0 mm 1 mps 698 mmHg 32%
    11:00 +25°C° 0 mm 2 mps 698 mmHg 30%
    12:00 +25°C° 0 mm 2 mps 698 mmHg 30%
    13:00 +25°C° 0 mm 2 mps 697 mmHg 29%
    14:00 +26°C° 0 mm 2 mps 697 mmHg 29%
    15:00 +25°C° 0 mm 2 mps 697 mmHg 31%
    16:00 +24°C° 0 mm 2 mps 697 mmHg 32%
    17:00 +24°C° 0 mm 2 mps 697 mmHg 34%
    18:00 +23°C° 0 mm 2 mps 697 mmHg 35%
    19:00 +21°C° 0 mm 2 mps 697 mmHg 36%
    20:00 +20°C° 0 mm 2 mps 697 mmHg 37%
    21:00 +20°C° 0 mm 2 mps 697 mmHg 39%
    22:00 +19°C° 0 mm 2 mps 697 mmHg 40%
    23:00 +19°C° 0 mm 2 mps 697 mmHg 42%
    Show more